Time,TemperatureF,DewpointF,PressureIn,WindDirection,WindDirectionDegrees,WindSpeedMPH,WindSpeedGustMPH,Humidity,HourlyPrecipIn,Conditions,Clouds,dailyrainin,SoftwareType,DateUTC
2013-04-23 00:01:00,49.3,45.9,30.23,NNW,342,0.0,0.0,88,0.00,CLR,,0.00,WeatherDisplay:10.37,2013-04-23 04:01:00,
2013-04-23 00:02:00,49.3,45.9,30.23,NNW,343,3.5,3.5,88,0.00,CLR,,0.00,WeatherDisplay:10.37,2013-04-23 04:02:00,
2013-04-23 00:07:00,49.3,45.9,30.23,North,355,5.8,5.8,88,0.00,CLR,,0.00,WeatherDisplay:10.37,2013-04-23 04:07:00,
2013-04-23 00:12:00,49.4,46.0,30.23,NNW,336,3.5,3.5,88,0.00,CLR,,0.00,WeatherDisplay:10.37,2013-04-23 04:12:00,
2013-04-23 00:17:00,49.5,45.8,30.23,NNW,336,3.5,3.5,87,0.00,CLR,,0.00,WeatherDisplay:10.37,2013-04-23 04:17:00,
2013-04-23 00:22:00,49.5,45.8,30.23,North,5,3.5,3.5,87,0.00,CLR,,0.00,WeatherDisplay:10.37,2013-04-23 04:22:00,
2013-04-23 00:27:00,49.5,45.5,30.23,WNW,300,3.5,3.5,86,0.00,CLR,,0.00,WeatherDisplay:10.37,2013-04-23 04:27:00,
2013-04-23 00:32:00,49.7,45.7,30.23,NW,304,1.0,0.0,86,0.00,CLR,,0.00,WeatherDisplay:10.37,2013-04-23 04:32:00,
2013-04-23 00:38:00,49.7,45.7,30.23,NNW,338,2.3,2.3,86,0.00,CLR,,0.00,WeatherDisplay:10.37,2013-04-23 04:38:00,
2013-04-23 00:43:00,49.6,45.6,30.22,ENE,62,4.6,4.6,86,0.00,CLR,,0.00,WeatherDisplay:10.37,2013-04-23 04:43:00,
2013-04-23 00:48:00,49.7,45.7,30.22,NNW,344,2.0,2.0,86,0.00,CLR,,0.00,WeatherDisplay:10.37,2013-04-23 04:48:00,
2013-04-23 00:53:00,49.7,45.4,30.22,NNW,348,3.5,3.5,85,0.00,CLR,,0.00,WeatherDisplay:10.37,2013-04-23 04:53:00,
2013-04-23 00:58:00,49.6,45.3,30.22,North,355,5.8,5.8,85,0.00,CLR,,0.00,WeatherDisplay:10.37,2013-04-23 04:58:00,
2013-04-23 01:03:00,49.7,45.1,30.22,North,355,4.0,4.0,84,0.00,CLR,,0.00,WeatherDisplay:10.37,2013-04-23 05:03:00,
2013-04-23 01:08:00,49.7,45.1,30.21,NW,318,5.0,5.0,84,0.00,CLR,,0.00,WeatherDisplay:10.37,2013-04-23 05:08:00,
2013-04-23 01:13:00,49.7,45.1,30.21,North,355,5.8,5.8,84,0.00,CLR,,0.00,WeatherDisplay:10.37,2013-04-23 05:13:00,
2013-04-23 01:18:00,49.7,45.1,30.21,North,9,3.5,3.5,84,0.00,CLR,,0.00,WeatherDisplay:10.37,2013-04-23 05:18:00,
2013-04-23 01:23:00,49.7,45.1,30.22,NNE,26,5.0,5.0,84,0.00,CLR,,0.00,WeatherDisplay:10.37,2013-04-23 05:23:00,
2013-04-23 01:28:00,49.7,45.1,30.21,NW,304,0.0,0.0,84,0.00,CLR,,0.00,WeatherDisplay:10.37,2013-04-23 05:28:00,
2013-04-23 01:33:00,49.7,45.1,30.21,NW,304,2.0,2.0,84,0.00,CLR,,0.00,WeatherDisplay:10.37,2013-04-23 05:33:00,
2013-04-23 01:38:00,49.7,45.1,30.21,NW,304,4.0,4.0,84,0.00,CLR,,0.00,WeatherDisplay:10.37,2013-04-23 05:38:00,
2013-04-23 01:43:00,49.7,45.1,30.21,NNE,28,5.8,5.8,84,0.00,CLR,,0.00,WeatherDisplay:10.37,2013-04-23 05:43:00,
2013-04-23 01:48:00,49.6,45.0,30.21,NNE,24,4.6,4.6,84,0.00,CLR,,0.00,WeatherDisplay:10.37,2013-04-23 05:48:00,
2013-04-23 01:53:00,49.7,44.4,30.21,NW,317,2.3,2.3,82,0.00,CLR,,0.00,WeatherDisplay:10.37,2013-04-23 05:53:00,
2013-04-23 01:58:00,49.6,44.3,30.21,NW,319,1.2,1.2,82,0.00,CLR,,0.00,WeatherDisplay:10.37,2013-04-23 05:58:00,
2013-04-23 02:03:00,49.6,44.3,30.21,NNW,340,4.6,4.6,82,0.00,CLR,,0.00,WeatherDisplay:10.37,2013-04-23 06:03:00,
2013-04-23 02:08:00,49.6,44.3,30.21,NNW,344,4.0,4.0,82,0.00,CLR,,0.00,WeatherDisplay:10.37,2013-04-23 06:08:00,
2013-04-23 02:13:00,49.6,44.3,30.20,North,355,5.0,5.0,82,0.00,CLR,,0.00,WeatherDisplay:10.37,2013-04-23 06:13:00,
2013-04-23 02:18:00,49.6,44.3,30.20,North,360,3.5,3.5,82,0.00,CLR,,0.00,WeatherDisplay:10.37,2013-04-23 06:18:00,
2013-04-23 02:23:00,49.5,44.2,30.20,North,9,3.5,3.5,82,0.00,CLR,,0.00,WeatherDisplay:10.37,2013-04-23 06:23:00,
2013-04-23 02:28:00,49.5,44.9,30.20,North,350,4.6,4.6,84,0.00,CLR,,0.00,WeatherDisplay:10.37,2013-04-23 06:28:00,
2013-04-23 02:33:00,49.5,44.2,30.19,NNE,15,3.5,3.5,82,0.00,CLR,,0.00,WeatherDisplay:10.37,2013-04-23 06:33:00,
2013-04-23 02:38:00,49.5,44.9,30.19,NNE,14,3.0,3.0,84,0.00,CLR,,0.00,WeatherDisplay:10.37,2013-04-23 06:38:00,
2013-04-23 02:43:00,49.4,44.8,30.19,North,5,3.5,3.5,84,0.00,CLR,,0.00,WeatherDisplay:10.37,2013-04-23 06:43:00,
2013-04-23 02:48:00,49.4,44.8,30.19,North,5,5.8,5.8,84,0.00,CLR,,0.00,WeatherDisplay:10.37,2013-04-23 06:48:00,
2013-04-23 02:53:00,49.3,44.0,30.19,NW,312,3.5,3.5,82,0.00,CLR,,0.00,WeatherDisplay:10.37,2013-04-23 06:53:00,
2013-04-23 02:58:00,49.3,44.7,30.19,NW,318,3.5,3.5,84,0.00,CLR,,0.00,WeatherDisplay:10.37,2013-04-23 06:58:00,
2013-04-23 03:03:00,49.3,44.7,30.19,NW,320,3.5,3.5,84,0.00,CLR,,0.00,WeatherDisplay:10.37,2013-04-23 07:03:00,
2013-04-23 03:08:00,49.3,44.7,30.19,NNW,348,1.0,1.0,84,0.00,CLR,,0.00,WeatherDisplay:10.37,2013-04-23 07:08:00,
2013-04-23 03:13:00,49.2,44.6,30.19,NNW,340,3.5,3.5,84,0.00,CLR,,0.00,WeatherDisplay:10.37,2013-04-23 07:13:00,
2013-04-23 03:18:00,49.1,44.5,30.19,NNE,18,3.5,3.5,84,0.00,CLR,,0.00,WeatherDisplay:10.37,2013-04-23 07:18:00,
2013-04-23 03:23:00,49.1,44.5,30.19,NNE,14,10.4,10.4,84,0.00,CLR,,0.00,WeatherDisplay:10.37,2013-04-23 07:23:00,
2013-04-23 03:28:00,49.1,44.5,30.19,NNW,348,1.2,0.0,84,0.00,CLR,,0.00,WeatherDisplay:10.37,2013-04-23 07:28:00,
2013-04-23 03:33:00,49.1,44.5,30.19,NNW,338,3.5,3.5,84,0.00,CLR,,0.00,WeatherDisplay:10.37,2013-04-23 07:33:00,
2013-04-23 03:38:00,49.1,44.5,30.19,NNW,344,3.5,3.5,84,0.00,CLR,,0.00,WeatherDisplay:10.37,2013-04-23 07:38:00,
2013-04-23 03:43:00,49.1,44.5,30.19,NNW,345,3.5,3.5,84,0.00,CLR,,0.00,WeatherDisplay:10.37,2013-04-23 07:43:00,
2013-04-23 03:48:00,49.0,44.4,30.19,NNW,345,4.6,4.6,84,0.00,CLR,,0.00,WeatherDisplay:10.37,2013-04-23 07:48:00,
2013-04-23 03:53:00,49.0,44.4,30.19,North,360,4.0,4.0,84,0.00,CLR,,0.00,WeatherDisplay:10.37,2013-04-23 07:53:00,
2013-04-23 03:58:00,49.0,44.4,30.18,NNW,348,3.5,3.5,84,0.00,CLR,,0.00,WeatherDisplay:10.37,2013-04-23 07:58:00,
2013-04-23 04:03:00,48.9,44.6,30.18,NNW,339,3.5,3.5,85,0.00,CLR,,0.00,WeatherDisplay:10.37,2013-04-23 08:03:00,
2013-04-23 04:08:00,48.8,44.5,30.18,NNW,348,3.5,3.5,85,0.00,CLR,,0.00,WeatherDisplay:10.37,2013-04-23 08:08:00,
2013-04-23 04:13:00,48.8,44.5,30.18,NNE,15,4.0,4.0,85,0.00,CLR,,0.00,WeatherDisplay:10.37,2013-04-23 08:13:00,
2013-04-23 04:18:00,48.7,44.4,30.18,NNW,334,10.4,10.4,85,0.00,CLR,,0.00,WeatherDisplay:10.37,2013-04-23 08:18:00,
2013-04-23 04:23:00,48.7,44.4,30.18,NW,321,3.5,3.5,85,0.00,CLR,,0.00,WeatherDisplay:10.37,2013-04-23 08:23:00,
2013-04-23 04:28:00,48.6,44.3,30.17,NE,36,11.5,11.5,85,0.00,CLR,,0.00,WeatherDisplay:10.37,2013-04-23 08:28:00,
2013-04-23 04:33:00,48.6,44.3,30.18,NNE,14,3.0,3.0,85,0.00,CLR,,0.00,WeatherDisplay:10.37,2013-04-23 08:33:00,
2013-04-23 04:38:00,48.6,44.3,30.18,North,350,2.0,2.0,85,0.00,CLR,,0.00,WeatherDisplay:10.37,2013-04-23 08:38:00,
2013-04-23 04:43:00,48.6,44.3,30.18,NW,321,3.5,3.5,85,0.00,CLR,,0.00,WeatherDisplay:10.37,2013-04-23 08:43:00,
2013-04-23 04:48:00,48.6,44.3,30.18,North,5,1.2,0.0,85,0.00,CLR,,0.00,WeatherDisplay:10.37,2013-04-23 08:48:00,
2013-04-23 04:53:00,48.6,44.3,30.18,North,5,2.0,0.0,85,0.00,CLR,,0.00,WeatherDisplay:10.37,2013-04-23 08:53:00,
2013-04-23 04:58:00,48.6,44.3,30.18,North,9,3.0,3.0,85,0.00,CLR,,0.00,WeatherDisplay:10.37,2013-04-23 08:58:00,
2013-04-23 05:03:00,48.6,44.3,30.18,North,9,2.3,2.3,85,0.00,CLR,,0.00,WeatherDisplay:10.37,2013-04-23 09:03:00,
2013-04-23 05:08:00,48.5,44.2,30.17,NNW,337,3.5,3.5,85,0.00,CLR,,0.00,WeatherDisplay:10.37,2013-04-23 09:08:00,
2013-04-23 05:13:00,48.5,44.2,30.17,NNW,345,3.5,3.5,85,0.00,CLR,,0.00,WeatherDisplay:10.37,2013-04-23 09:13:00,
2013-04-23 05:18:00,48.4,44.1,30.17,North,355,3.5,3.5,85,0.00,CLR,,0.00,WeatherDisplay:10.37,2013-04-23 09:18:00,
2013-04-23 05:23:00,48.4,44.4,30.17,NNE,28,3.5,3.5,86,0.00,CLR,,0.00,WeatherDisplay:10.37,2013-04-23 09:23:00,
2013-04-23 05:28:00,48.4,44.1,30.17,NNE,29,2.3,2.3,85,0.00,CLR,,0.00,WeatherDisplay:10.37,2013-04-23 09:28:00,
2013-04-23 05:33:00,48.4,44.4,30.17,NNE,20,1.2,1.2,86,0.00,CLR,,0.00,WeatherDisplay:10.37,2013-04-23 09:33:00,
2013-04-23 05:38:00,48.4,44.4,30.17,NNE,19,3.5,3.5,86,0.00,CLR,,0.00,WeatherDisplay:10.37,2013-04-23 09:38:00,
2013-04-23 05:43:00,48.3,44.3,30.17,North,360,4.6,4.6,86,0.00,CLR,,0.00,WeatherDisplay:10.37,2013-04-23 09:43:00,
2013-04-23 05:48:00,48.3,44.3,30.17,NNE,14,3.5,3.5,86,0.00,CLR,,0.00,WeatherDisplay:10.37,2013-04-23 09:48:00,
2013-04-23 05:53:00,48.2,44.2,30.17,NW,323,11.5,11.5,86,0.00,CLR,,0.00,WeatherDisplay:10.37,2013-04-23 09:53:00,
2013-04-23 05:58:00,48.2,44.2,30.17,NNE,17,3.5,3.5,86,0.00,CLR,,0.00,WeatherDisplay:10.37,2013-04-23 09:58:00,
2013-04-23 06:03:00,48.2,44.2,30.17,NNE,17,2.3,2.3,86,0.00,CLR,,0.00,WeatherDisplay:10.37,2013-04-23 10:03:00,
2013-04-23 06:08:00,48.1,44.1,30.17,NNE,13,3.5,3.5,86,0.00,CLR,,0.00,WeatherDisplay:10.37,2013-04-23 10:08:00,
2013-04-23 06:13:00,48.1,44.4,30.17,NE,56,3.5,3.5,87,0.00,CLR,,0.00,WeatherDisplay:10.37,2013-04-23 10:13:00,
2013-04-23 06:18:00,48.1,44.4,30.18,NNW,342,3.5,3.5,87,0.00,CLR,,0.00,WeatherDisplay:10.37,2013-04-23 10:18:00,
2013-04-23 06:23:00,48.1,44.4,30.18,ENE,74,2.3,2.3,87,0.00,CLR,,0.00,WeatherDisplay:10.37,2013-04-23 10:23:00,
2013-04-23 06:28:00,48.1,44.4,30.18,NNW,334,4.6,0.0,87,0.00,CLR,,0.00,WeatherDisplay:10.37,2013-04-23 10:28:00,
2013-04-23 06:33:00,48.1,44.4,30.18,NNW,348,3.5,3.5,87,0.00,CLR,,0.00,WeatherDisplay:10.37,2013-04-23 10:33:00,
2013-04-23 06:38:00,48.1,44.4,30.18,NNE,14,4.6,4.6,87,0.00,CLR,,0.00,WeatherDisplay:10.37,2013-04-23 10:38:00,
2013-04-23 06:43:00,48.1,44.4,30.18,North,355,3.0,3.0,87,0.00,CLR,,0.00,WeatherDisplay:10.37,2013-04-23 10:43:00,
2013-04-23 06:48:00,48.1,44.4,30.18,NW,319,2.3,2.3,87,0.00,CLR,,0.00,WeatherDisplay:10.37,2013-04-23 10:48:00,
2013-04-23 06:53:00,48.1,44.4,30.18,North,360,1.2,0.0,87,0.00,CLR,,0.00,WeatherDisplay:10.37,2013-04-23 10:53:00,
2013-04-23 06:58:00,48.1,44.7,30.18,NNW,328,3.0,3.0,88,0.00,CLR,,0.00,WeatherDisplay:10.37,2013-04-23 10:58:00,
2013-04-23 07:03:00,48.2,44.8,30.19,North,349,5.8,5.8,88,0.00,CLR,,0.00,WeatherDisplay:10.37,2013-04-23 11:03:00,
2013-04-23 07:08:00,48.2,44.8,30.19,NNW,341,4.0,4.0,88,0.00,CLR,,0.00,WeatherDisplay:10.37,2013-04-23 11:08:00,
2013-04-23 07:13:00,48.2,44.8,30.19,NNE,12,3.5,3.5,88,0.00,CLR,,0.00,WeatherDisplay:10.37,2013-04-23 11:13:00,
2013-04-23 07:18:00,48.2,44.8,30.19,NW,319,4.6,4.6,88,0.00,CLR,,0.00,WeatherDisplay:10.37,2013-04-23 11:18:00,
2013-04-23 07:23:00,48.2,44.8,30.19,NNE,24,10.4,10.4,88,0.00,CLR,,0.00,WeatherDisplay:10.37,2013-04-23 11:23:00,
2013-04-23 07:28:00,48.2,44.8,30.19,North,9,4.6,4.6,88,0.00,CLR,,0.00,WeatherDisplay:10.37,2013-04-23 11:28:00,
2013-04-23 07:33:00,48.2,44.8,30.19,North,5,5.8,5.8,88,0.00,CLR,,0.00,WeatherDisplay:10.37,2013-04-23 11:33:00,
2013-04-23 07:38:00,48.3,44.9,30.19,NW,323,3.0,3.0,88,0.00,CLR,,0.00,WeatherDisplay:10.37,2013-04-23 11:38:00,
2013-04-23 07:43:00,48.3,44.9,30.19,North,350,3.5,3.5,88,0.00,CLR,,0.00,WeatherDisplay:10.37,2013-04-23 11:43:00,
2013-04-23 07:49:00,48.3,44.9,30.19,North,355,4.0,4.0,88,0.00,CLR,,0.00,WeatherDisplay:10.37,2013-04-23 11:49:00,
2013-04-23 07:54:00,48.4,45.0,30.20,NNW,344,2.3,0.0,88,0.00,CLR,,0.00,WeatherDisplay:10.37,2013-04-23 11:54:00,
2013-04-23 07:59:00,48.6,45.2,30.20,North,355,4.0,4.0,88,0.00,CLR,,0.00,WeatherDisplay:10.37,2013-04-23 11:59:00,
2013-04-23 08:04:00,48.7,45.3,30.20,North,355,3.5,3.5,88,0.00,CLR,,0.00,WeatherDisplay:10.37,2013-04-23 12:04:00,
2013-04-23 08:09:00,49.0,45.6,30.20,NNW,340,9.0,9.0,88,0.00,CLR,,0.00,WeatherDisplay:10.37,2013-04-23 12:09:00,
2013-04-23 08:14:00,49.2,45.8,30.20,NNW,348,3.5,3.5,88,0.00,CLR,,0.00,WeatherDisplay:10.37,2013-04-23 12:14:00,
2013-04-23 08:19:00,49.5,45.8,30.20,NNW,347,2.3,2.3,87,0.00,CLR,,0.00,WeatherDisplay:10.37,2013-04-23 12:19:00,
2013-04-23 08:24:00,49.6,45.9,30.20,NNW,339,3.5,3.5,87,0.00,CLR,,0.00,WeatherDisplay:10.37,2013-04-23 12:24:00,
2013-04-23 08:29:00,49.7,46.0,30.20,North,349,0.0,0.0,87,0.00,CLR,,0.00,WeatherDisplay:10.37,2013-04-23 12:29:00,
2013-04-23 08:34:00,49.9,46.2,30.20,NNW,348,0.0,0.0,87,0.00,CLR,,0.00,WeatherDisplay:10.37,2013-04-23 12:34:00,
2013-04-23 08:39:00,50.0,46.3,30.20,NNW,328,3.5,3.5,87,0.00,CLR,,0.00,WeatherDisplay:10.37,2013-04-23 12:39:00,
2013-04-23 08:44:00,49.9,45.9,30.20,NNW,334,5.8,5.8,86,0.00,CLR,,0.00,WeatherDisplay:10.37,2013-04-23 12:44:00,
2013-04-23 08:49:00,50.0,46.0,30.20,North,355,0.0,0.0,86,0.00,CLR,,0.00,WeatherDisplay:10.37,2013-04-23 12:49:00,
2013-04-23 08:54:00,50.1,46.1,30.20,NNW,336,6.0,6.0,86,0.00,CLR,,0.00,WeatherDisplay:10.37,2013-04-23 12:54:00,
2013-04-23 08:59:00,50.4,46.7,30.20,SW,223,1.2,0.0,87,0.00,CLR,,0.00,WeatherDisplay:10.37,2013-04-23 12:59:00,
2013-04-23 09:04:00,50.7,47.0,30.20,North,355,3.5,3.5,87,0.00,CLR,,0.00,WeatherDisplay:10.37,2013-04-23 13:04:00,
2013-04-23 09:09:00,51.1,47.1,30.20,NNW,346,4.0,4.0,86,0.00,CLR,,0.00,WeatherDisplay:10.37,2013-04-23 13:09:00,
2013-04-23 09:14:00,51.1,46.7,30.19,North,360,5.8,5.8,85,0.00,CLR,,0.00,WeatherDisplay:10.37,2013-04-23 13:14:00,
2013-04-23 09:19:00,51.0,46.6,30.19,NNW,334,4.0,4.0,85,0.00,CLR,,0.00,WeatherDisplay:10.37,2013-04-23 13:19:00,
2013-04-23 09:24:00,50.8,46.5,30.19,NNW,329,5.0,5.0,85,0.00,CLR,,0.00,WeatherDisplay:10.37,2013-04-23 13:24:00,
2013-04-23 09:29:00,51.2,46.8,30.19,NNW,341,3.5,3.5,85,0.00,CLR,,0.00,WeatherDisplay:10.37,2013-04-23 13:29:00,
2013-04-23 09:34:00,51.3,46.6,30.19,NNE,16,5.8,5.8,84,0.00,CLR,,0.00,WeatherDisplay:10.37,2013-04-23 13:34:00,
2013-04-23 09:39:00,51.3,46.6,30.19,North,355,5.0,5.0,84,0.00,CLR,,0.00,WeatherDisplay:10.37,2013-04-23 13:39:00,
2013-04-23 09:44:00,51.4,46.7,30.20,NNW,340,4.0,4.0,84,0.00,CLR,,0.00,WeatherDisplay:10.37,2013-04-23 13:44:00,
2013-04-23 09:49:00,51.6,46.9,30.20,NNW,327,5.0,5.0,84,0.00,CLR,,0.00,WeatherDisplay:10.37,2013-04-23 13:49:00,
2013-04-23 09:54:00,51.8,47.1,30.20,ENE,63,4.0,4.0,84,0.00,CLR,,0.00,WeatherDisplay:10.37,2013-04-23 13:54:00,
2013-04-23 09:59:00,52.0,47.3,30.20,North,355,3.5,3.5,84,0.00,CLR,,0.00,WeatherDisplay:10.37,2013-04-23 13:59:00,
2013-04-23 10:04:00,51.8,46.2,30.20,North,9,6.9,6.9,81,0.00,CLR,,0.00,WeatherDisplay:10.37,2013-04-23 14:04:00,
2013-04-23 10:09:00,51.9,46.6,30.20,NNW,337,1.2,0.0,82,0.00,CLR,,0.00,WeatherDisplay:10.37,2013-04-23 14:09:00,
2013-04-23 10:14:00,51.9,46.3,30.20,North,351,2.3,2.3,81,0.00,CLR,,0.00,WeatherDisplay:10.37,2013-04-23 14:14:00,
2013-04-23 10:19:00,51.9,46.3,30.20,NNE,32,3.5,3.5,81,0.00,CLR,,0.00,WeatherDisplay:10.37,2013-04-23 14:19:00,
2013-04-23 10:24:00,52.2,46.9,30.20,North,10,1.2,1.2,82,0.00,CLR,,0.00,WeatherDisplay:10.37,2013-04-23 14:24:00,
2013-04-23 10:29:00,52.2,46.5,30.20,NNW,347,3.5,3.5,81,0.00,CLR,,0.00,WeatherDisplay:10.37,2013-04-23 14:29:00,
2013-04-23 10:34:00,52.1,46.8,30.21,North,355,3.5,3.5,82,0.00,CLR,,0.00,WeatherDisplay:10.37,2013-04-23 14:34:00,
2013-04-23 10:39:00,52.1,46.4,30.21,NNW,338,8.1,8.1,81,0.00,CLR,,0.00,WeatherDisplay:10.37,2013-04-23 14:39:00,
2013-04-23 10:44:00,52.3,46.6,30.22,North,360,5.8,0.0,81,0.00,CLR,,0.00,WeatherDisplay:10.37,2013-04-23 14:44:00,
2013-04-23 10:49:00,52.3,46.3,30.22,North,9,3.5,0.0,80,0.00,CLR,,0.00,WeatherDisplay:10.37,2013-04-23 14:49:00,
2013-04-23 10:54:00,52.6,46.9,30.22,North,9,0.0,0.0,81,0.00,CLR,,0.00,WeatherDisplay:10.37,2013-04-23 14:54:00,
2013-04-23 10:59:00,52.5,46.8,30.22,NE,44,2.3,2.3,81,0.00,CLR,,0.00,WeatherDisplay:10.37,2013-04-23 14:59:00,
2013-04-23 11:04:00,52.6,46.9,30.22,NE,44,2.0,2.0,81,0.00,CLR,,0.00,WeatherDisplay:10.37,2013-04-23 15:04:00,
2013-04-23 11:09:00,52.8,46.8,30.21,NE,42,3.5,0.0,80,0.00,CLR,,0.00,WeatherDisplay:10.37,2013-04-23 15:09:00,
2013-04-23 11:14:00,53.1,47.1,30.20,North,355,4.0,4.0,80,0.00,CLR,,0.00,WeatherDisplay:10.37,2013-04-23 15:14:00,
2013-04-23 11:20:00,53.7,47.0,30.21,NE,42,6.0,6.0,78,0.00,CLR,,0.00,WeatherDisplay:10.37,2013-04-23 15:20:00,
2013-04-23 11:25:00,54.0,47.6,30.21,North,349,6.0,6.0,79,0.00,CLR,,0.00,WeatherDisplay:10.37,2013-04-23 15:25:00,
2013-04-23 11:30:00,54.3,47.9,30.20,NNW,328,3.5,3.5,79,0.00,CLR,,0.00,WeatherDisplay:10.37,2013-04-23 15:30:00,
2013-04-23 11:35:00,53.9,46.9,30.20,NNE,23,3.5,3.5,77,0.00,CLR,,0.00,WeatherDisplay:10.37,2013-04-23 15:35:00,
2013-04-23 11:40:00,54.2,47.5,30.20,ENE,61,4.0,4.0,78,0.00,CLR,,0.00,WeatherDisplay:10.37,2013-04-23 15:40:00,
2013-04-23 11:45:00,54.3,47.6,30.20,NE,55,1.2,1.2,78,0.00,CLR,,0.00,WeatherDisplay:10.37,2013-04-23 15:45:00,
2013-04-23 11:50:00,54.6,47.5,30.20,ENE,77,3.5,3.5,77,0.00,CLR,,0.00,WeatherDisplay:10.37,2013-04-23 15:50:00,
2013-04-23 11:55:00,55.0,48.3,30.20,North,10,1.2,0.0,78,0.00,CLR,,0.00,WeatherDisplay:10.37,2013-04-23 15:55:00,
2013-04-23 12:00:00,55.2,47.8,30.20,North,355,3.5,3.5,76,0.00,CLR,,0.00,WeatherDisplay:10.37,2013-04-23 16:00:00,
2013-04-23 12:05:00,55.2,47.4,30.20,North,9,3.5,3.5,75,0.00,CLR,,0.00,WeatherDisplay:10.37,2013-04-23 16:05:00,
2013-04-23 12:10:00,55.9,48.1,30.20,North,349,4.6,4.6,75,0.00,CLR,,0.00,WeatherDisplay:10.37,2013-04-23 16:10:00,
2013-04-23 12:15:00,55.7,47.9,30.19,North,355,3.5,3.5,75,0.00,CLR,,0.00,WeatherDisplay:10.37,2013-04-23 16:15:00,
2013-04-23 12:20:00,56.0,47.5,30.20,North,360,4.6,4.6,73,0.00,CLR,,0.00,WeatherDisplay:10.37,2013-04-23 16:20:00,
2013-04-23 12:25:00,56.6,48.8,30.20,NE,50,2.3,2.3,75,0.00,CLR,,0.00,WeatherDisplay:10.37,2013-04-23 16:25:00,
2013-04-23 12:30:00,57.4,49.9,30.20,NNE,24,1.2,0.0,76,0.00,CLR,,0.00,WeatherDisplay:10.37,2013-04-23 16:30:00,
2013-04-23 12:35:00,57.6,48.3,30.20,WSW,257,4.6,4.6,71,0.00,CLR,,0.00,WeatherDisplay:10.37,2013-04-23 16:35:00,
2013-04-23 12:40:00,57.0,48.1,30.20,NNW,330,3.5,3.5,72,0.00,CLR,,0.00,WeatherDisplay:10.37,2013-04-23 16:40:00,
2013-04-23 12:45:00,56.7,48.9,30.20,WNW,284,1.2,0.0,75,0.00,CLR,,0.00,WeatherDisplay:10.37,2013-04-23 16:45:00,
2013-04-23 12:50:00,57.1,47.0,30.20,NW,315,3.5,3.5,69,0.00,CLR,,0.00,WeatherDisplay:10.37,2013-04-23 16:50:00,
2013-04-23 12:55:00,57.6,48.3,30.20,WNW,287,5.8,5.8,71,0.00,CLR,,0.00,WeatherDisplay:10.37,2013-04-23 16:55:00,
2013-04-23 13:00:00,59.7,49.9,30.20,WNW,292,3.5,3.5,70,0.00,CLR,,0.00,WeatherDisplay:10.37,2013-04-23 17:00:00,
2013-04-23 13:05:00,60.3,50.1,30.19,North,5,3.5,3.5,69,0.00,CLR,,0.00,WeatherDisplay:10.37,2013-04-23 17:05:00,
2013-04-23 13:10:00,60.2,49.2,30.20,NNW,346,4.6,4.6,67,0.00,CLR,,0.00,WeatherDisplay:10.37,2013-04-23 17:10:00,
2013-04-23 13:15:00,58.2,47.3,30.20,West,269,5.8,5.8,67,0.00,CLR,,0.00,WeatherDisplay:10.37,2013-04-23 17:15:00,
2013-04-23 13:20:00,58.5,48.7,30.19,West,260,1.2,1.2,70,0.00,CLR,,0.00,WeatherDisplay:10.37,2013-04-23 17:20:00,
2013-04-23 13:25:00,58.8,47.9,30.19,NNW,341,3.5,3.5,67,0.00,CLR,,0.00,WeatherDisplay:10.37,2013-04-23 17:25:00,
2013-04-23 13:30:00,58.7,48.2,30.18,NW,321,1.2,0.0,68,0.00,CLR,,0.00,WeatherDisplay:10.37,2013-04-23 17:30:00,
2013-04-23 13:35:00,60.3,49.7,30.18,NW,325,6.9,6.9,68,0.00,CLR,,0.00,WeatherDisplay:10.37,2013-04-23 17:35:00,
2013-04-23 13:40:00,59.7,48.3,30.17,NW,326,3.0,3.0,66,0.00,CLR,,0.00,WeatherDisplay:10.37,2013-04-23 17:40:00,
2013-04-23 13:45:00,61.4,50.3,30.17,North,9,3.5,3.5,67,0.00,CLR,,0.00,WeatherDisplay:10.37,2013-04-23 17:45:00,
2013-04-23 13:50:00,61.1,46.2,30.17,North,9,3.5,0.0,58,0.00,CLR,,0.00,WeatherDisplay:10.37,2013-04-23 17:50:00,
2013-04-23 13:55:00,60.9,49.9,30.16,NE,36,6.9,6.9,67,0.00,CLR,,0.00,WeatherDisplay:10.37,2013-04-23 17:55:00,
2013-04-23 14:00:00,61.5,48.4,30.16,ENE,78,5.8,5.8,62,0.00,CLR,,0.00,WeatherDisplay:10.37,2013-04-23 18:00:00,
2013-04-23 14:05:00,60.3,48.5,30.16,East,80,3.5,3.5,65,0.00,CLR,,0.00,WeatherDisplay:10.37,2013-04-23 18:05:00,
2013-04-23 14:10:00,61.6,49.3,30.16,NNW,346,3.5,3.5,64,0.00,CLR,,0.00,WeatherDisplay:10.37,2013-04-23 18:10:00,
2013-04-23 14:15:00,61.3,49.4,30.16,NNW,342,4.6,4.6,65,0.00,CLR,,0.00,WeatherDisplay:10.37,2013-04-23 18:15:00,
2013-04-23 14:20:00,62.1,48.9,30.16,WNW,298,4.0,4.0,62,0.00,CLR,,0.00,WeatherDisplay:10.37,2013-04-23 18:20:00,
2013-04-23 14:25:00,61.5,49.6,30.16,West,271,1.2,1.2,65,0.00,CLR,,0.00,WeatherDisplay:10.37,2013-04-23 18:25:00,
2013-04-23 14:30:00,62.9,50.5,30.15,NNE,13,3.5,3.5,64,0.00,CLR,,0.00,WeatherDisplay:10.37,2013-04-23 18:30:00,
2013-04-23 14:35:00,63.9,50.6,30.15,NNE,13,2.3,0.0,62,0.00,CLR,,0.00,WeatherDisplay:10.37,2013-04-23 18:35:00,
2013-04-23 14:40:00,63.6,50.8,30.15,WNW,301,2.3,0.0,63,0.00,CLR,,0.00,WeatherDisplay:10.37,2013-04-23 18:40:00,
2013-04-23 14:45:00,64.0,49.4,30.15,NNW,331,3.5,3.5,59,0.00,CLR,,0.00,WeatherDisplay:10.37,2013-04-23 18:45:00,
2013-04-23 14:50:00,64.4,48.8,30.14,WNW,286,1.0,1.0,57,0.00,CLR,,0.00,WeatherDisplay:10.37,2013-04-23 18:50:00,
2013-04-23 14:55:00,63.3,49.2,30.14,NW,311,2.0,2.0,60,0.00,CLR,,0.00,WeatherDisplay:10.37,2013-04-23 18:55:00,
2013-04-23 15:01:00,63.8,49.2,30.14,North,349,4.6,4.6,59,0.00,CLR,,0.00,WeatherDisplay:10.37,2013-04-23 19:01:00,
2013-04-23 15:06:00,63.9,51.1,30.13,NW,318,3.5,3.5,63,0.00,CLR,,0.00,WeatherDisplay:10.37,2013-04-23 19:06:00,
2013-04-23 15:11:00,63.5,47.5,30.13,NW,305,3.5,3.5,56,0.00,CLR,,0.00,WeatherDisplay:10.37,2013-04-23 19:11:00,
2013-04-23 15:16:00,62.9,47.9,30.13,ENE,67,5.0,5.0,58,0.00,CLR,,0.00,WeatherDisplay:10.37,2013-04-23 19:16:00,
2013-04-23 15:21:00,63.1,49.9,30.13,ENE,78,2.3,2.3,62,0.00,CLR,,0.00,WeatherDisplay:10.37,2013-04-23 19:21:00,
2013-04-23 15:26:00,62.9,50.1,30.12,ESE,122,3.5,3.5,63,0.00,CLR,,0.00,WeatherDisplay:10.37,2013-04-23 19:26:00,
2013-04-23 15:31:00,62.9,47.4,30.12,East,79,7.0,7.0,57,0.00,CLR,,0.00,WeatherDisplay:10.37,2013-04-23 19:31:00,
2013-04-23 15:36:00,64.5,49.8,30.12,NE,37,3.5,3.5,59,0.00,CLR,,0.00,WeatherDisplay:10.37,2013-04-23 19:36:00,
2013-04-23 15:41:00,65.7,49.1,30.11,NNE,24,2.3,2.3,55,0.00,CLR,,0.00,WeatherDisplay:10.37,2013-04-23 19:41:00,
2013-04-23 15:46:00,64.6,49.0,30.11,North,355,3.5,3.5,57,0.00,CLR,,0.00,WeatherDisplay:10.37,2013-04-23 19:46:00,
2013-04-23 15:51:00,64.0,50.7,30.11,East,98,3.0,3.0,62,0.00,CLR,,0.00,WeatherDisplay:10.37,2013-04-23 19:51:00,
2013-04-23 15:56:00,64.3,49.2,30.11,East,82,5.8,5.8,58,0.00,CLR,,0.00,WeatherDisplay:10.37,2013-04-23 19:56:00,
2013-04-23 16:01:00,65.4,49.8,30.10,NNW,338,3.5,3.5,57,0.00,CLR,,0.00,WeatherDisplay:10.37,2013-04-23 20:01:00,
2013-04-23 16:06:00,65.0,48.4,30.10,NNW,338,2.0,2.0,55,0.00,CLR,,0.00,WeatherDisplay:10.37,2013-04-23 20:06:00,
2013-04-23 16:11:00,64.7,49.6,30.10,East,79,1.2,1.2,58,0.00,CLR,,0.00,WeatherDisplay:10.37,2013-04-23 20:11:00,
2013-04-23 16:16:00,64.2,48.6,30.10,East,80,2.3,2.3,57,0.00,CLR,,0.00,WeatherDisplay:10.37,2013-04-23 20:16:00,
2013-04-23 16:21:00,64.5,48.9,30.10,East,89,3.5,3.5,57,0.00,CLR,,0.00,WeatherDisplay:10.37,2013-04-23 20:21:00,
2013-04-23 16:26:00,64.5,48.9,30.09,SE,128,6.9,6.9,57,0.00,CLR,,0.00,WeatherDisplay:10.37,2013-04-23 20:26:00,
2013-04-23 16:31:00,64.3,48.7,30.10,SE,132,4.6,4.6,57,0.00,CLR,,0.00,WeatherDisplay:10.37,2013-04-23 20:31:00,
2013-04-23 16:36:00,64.9,50.2,30.09,SE,132,5.0,5.0,59,0.00,CLR,,0.00,WeatherDisplay:10.37,2013-04-23 20:36:00,
2013-04-23 16:41:00,64.6,49.5,30.09,East,83,4.6,4.6,58,0.00,CLR,,0.00,WeatherDisplay:10.37,2013-04-23 20:41:00,
2013-04-23 16:47:00,64.8,50.6,30.09,East,95,4.0,4.0,60,0.00,CLR,,0.00,WeatherDisplay:10.37,2013-04-23 20:47:00,
2013-04-23 16:52:00,64.8,50.1,30.09,East,98,3.5,3.5,59,0.00,CLR,,0.00,WeatherDisplay:10.37,2013-04-23 20:52:00,
2013-04-23 16:57:00,64.7,49.1,30.09,ESE,107,2.3,2.3,57,0.00,CLR,,0.00,WeatherDisplay:10.37,2013-04-23 20:57:00,
2013-04-23 17:02:00,65.5,49.9,30.09,ESE,105,3.5,3.5,57,0.00,CLR,,0.00,WeatherDisplay:10.37,2013-04-23 21:02:00,
2013-04-23 17:07:00,65.9,49.8,30.08,ESE,105,3.5,3.5,56,0.00,CLR,,0.00,WeatherDisplay:10.37,2013-04-23 21:07:00,
2013-04-23 17:12:00,65.9,50.7,30.08,ESE,105,2.3,0.0,58,0.00,CLR,,0.00,WeatherDisplay:10.37,2013-04-23 21:12:00,
2013-04-23 17:17:00,65.4,49.8,30.08,ESE,105,3.0,3.0,57,0.00,CLR,,0.00,WeatherDisplay:10.37,2013-04-23 21:17:00,
2013-04-23 17:22:00,65.5,48.9,30.08,ESE,105,3.5,0.0,55,0.00,CLR,,0.00,WeatherDisplay:10.37,2013-04-23 21:22:00,
2013-04-23 17:27:00,65.4,48.8,30.08,ESE,107,3.5,3.5,55,0.00,CLR,,0.00,WeatherDisplay:10.37,2013-04-23 21:27:00,
2013-04-23 17:32:00,65.3,49.2,30.08,ESE,106,2.0,2.0,56,0.00,CLR,,0.00,WeatherDisplay:10.37,2013-04-23 21:32:00,
2013-04-23 17:37:00,65.6,50.9,30.08,ESE,106,1.0,0.0,59,0.00,CLR,,0.00,WeatherDisplay:10.37,2013-04-23 21:37:00,
2013-04-23 17:42:00,65.8,50.1,30.08,ESE,106,0.0,0.0,57,0.00,CLR,,0.00,WeatherDisplay:10.37,2013-04-23 21:42:00,
2013-04-23 17:47:00,65.9,49.8,30.08,ESE,106,1.2,0.0,56,0.00,CLR,,0.00,WeatherDisplay:10.37,2013-04-23 21:47:00,
2013-04-23 17:52:00,65.8,49.7,30.07,ESE,110,3.5,3.5,56,0.00,CLR,,0.00,WeatherDisplay:10.37,2013-04-23 21:52:00,
2013-04-23 17:57:00,65.6,49.5,30.08,ESE,110,0.0,0.0,56,0.00,CLR,,0.00,WeatherDisplay:10.37,2013-04-23 21:57:00,
2013-04-23 18:02:00,65.8,49.7,30.08,ESE,110,3.5,3.5,56,0.00,CLR,,0.00,WeatherDisplay:10.37,2013-04-23 22:02:00,
2013-04-23 18:07:00,65.4,49.8,30.08,ESE,110,0.0,0.0,57,0.00,CLR,,0.00,WeatherDisplay:10.37,2013-04-23 22:07:00,
2013-04-23 18:12:00,65.5,49.9,30.08,East,95,0.0,0.0,57,0.00,CLR,,0.00,WeatherDisplay:10.37,2013-04-23 22:12:00,
2013-04-23 18:17:00,65.6,51.3,30.08,East,95,2.3,0.0,60,0.00,CLR,,0.00,WeatherDisplay:10.37,2013-04-23 22:17:00,
2013-04-23 18:22:00,65.5,49.9,30.08,East,95,1.2,1.2,57,0.00,CLR,,0.00,WeatherDisplay:10.37,2013-04-23 22:22:00,
2013-04-23 18:27:00,65.2,50.0,30.09,East,95,0.0,0.1,58,0.00,CLR,,0.00,WeatherDisplay:10.37,2013-04-23 22:27:00,
2013-04-23 18:32:00,65.3,50.1,30.08,East,95,1.2,0.0,58,0.00,CLR,,0.00,WeatherDisplay:10.37,2013-04-23 22:32:00,
2013-04-23 18:37:00,65.0,49.9,30.08,East,95,1.2,1.2,58,0.00,CLR,,0.00,WeatherDisplay:10.37,2013-04-23 22:37:00,
2013-04-23 18:42:00,64.7,50.5,30.08,East,95,1.2,0.0,60,0.00,CLR,,0.00,WeatherDisplay:10.37,2013-04-23 22:42:00,
2013-04-23 18:47:00,64.5,50.3,30.08,East,95,0.0,0.0,60,0.00,CLR,,0.00,WeatherDisplay:10.37,2013-04-23 22:47:00,
2013-04-23 18:52:00,64.3,50.1,30.08,East,95,0.0,0.0,60,0.00,CLR,,0.00,WeatherDisplay:10.37,2013-04-23 22:52:00,
2013-04-23 18:57:00,63.8,51.4,30.08,East,95,0.0,0.0,64,0.00,CLR,,0.00,WeatherDisplay:10.37,2013-04-23 22:57:00,
2013-04-23 19:02:00,63.2,52.1,30.08,East,95,0.0,0.0,67,0.00,CLR,,0.00,WeatherDisplay:10.37,2013-04-23 23:02:00,
2013-04-23 19:07:00,62.7,53.2,30.08,East,95,0.0,0.0,71,0.00,CLR,,0.00,WeatherDisplay:10.37,2013-04-23 23:07:00,
2013-04-23 19:12:00,61.8,52.3,30.08,East,95,0.0,0.0,71,0.00,CLR,,0.00,WeatherDisplay:10.37,2013-04-23 23:12:00,
2013-04-23 19:17:00,60.8,53.2,30.08,East,95,0.0,0.0,76,0.00,CLR,,0.00,WeatherDisplay:10.37,2013-04-23 23:17:00,
2013-04-23 19:22:00,59.8,52.2,30.08,ESE,121,0.0,0.0,76,0.00,CLR,,0.00,WeatherDisplay:10.37,2013-04-23 23:22:00,
2013-04-23 19:27:00,59.1,52.2,30.08,ESE,121,0.0,0.0,78,0.00,CLR,,0.00,WeatherDisplay:10.37,2013-04-23 23:27:00,
2013-04-23 19:32:00,58.5,52.4,30.08,ESE,121,0.0,0.0,80,0.00,CLR,,0.00,WeatherDisplay:10.37,2013-04-23 23:32:00,
2013-04-23 19:37:00,57.9,51.8,30.08,ESE,121,0.0,0.0,80,0.00,CLR,,0.00,WeatherDisplay:10.37,2013-04-23 23:37:00,
2013-04-23 19:42:00,57.4,51.9,30.08,ESE,121,0.0,0.0,82,0.00,CLR,,0.00,WeatherDisplay:10.37,2013-04-23 23:42:00,
2013-04-23 19:47:00,56.8,52.0,30.08,ESE,121,0.0,0.0,84,0.00,CLR,,0.00,WeatherDisplay:10.37,2013-04-23 23:47:00,
2013-04-23 19:52:00,56.4,51.6,30.08,ESE,121,0.0,0.0,84,0.00,CLR,,0.00,WeatherDisplay:10.37,2013-04-23 23:52:00,
2013-04-23 19:57:00,56.0,51.6,30.08,ESE,121,0.0,0.0,85,0.00,CLR,,0.00,WeatherDisplay:10.37,2013-04-23 23:57:00,
2013-04-23 20:02:00,55.6,51.5,30.09,ESE,121,0.0,0.0,86,0.00,CLR,,0.00,WeatherDisplay:10.37,2013-04-24 00:02:00,
2013-04-23 20:07:00,55.1,51.3,30.09,ESE,121,0.0,0.0,87,0.00,CLR,,0.00,WeatherDisplay:10.37,2013-04-24 00:07:00,
2013-04-23 20:12:00,54.6,50.8,30.09,ESE,121,0.0,0.0,87,0.00,CLR,,0.00,WeatherDisplay:10.37,2013-04-24 00:12:00,
2013-04-23 20:17:00,54.1,50.6,30.09,ESE,121,0.0,0.0,88,0.00,CLR,,0.00,WeatherDisplay:10.37,2013-04-24 00:17:00,
2013-04-23 20:22:00,53.6,50.1,30.09,ESE,121,0.0,0.0,88,0.00,CLR,,0.00,WeatherDisplay:10.37,2013-04-24 00:22:00,
2013-04-23 20:27:00,53.3,50.1,30.10,ESE,121,0.0,0.0,89,0.00,CLR,,0.00,WeatherDisplay:10.37,2013-04-24 00:27:00,
2013-04-23 20:32:00,53.1,49.9,30.10,ESE,121,0.0,0.0,89,0.00,CLR,,0.00,WeatherDisplay:10.37,2013-04-24 00:32:00,
2013-04-23 20:37:00,52.7,49.5,30.10,ESE,121,0.0,0.0,89,0.00,CLR,,0.00,WeatherDisplay:10.37,2013-04-24 00:37:00,
2013-04-23 20:42:00,52.2,49.7,30.10,ESE,121,0.0,0.0,91,0.00,CLR,,0.00,WeatherDisplay:10.37,2013-04-24 00:42:00,
2013-04-23 20:48:00,51.8,49.3,30.10,ESE,121,0.0,0.0,91,0.00,CLR,,0.00,WeatherDisplay:10.37,2013-04-24 00:48:00,
2013-04-23 20:53:00,51.8,49.5,30.10,ESE,121,0.0,0.0,92,0.00,CLR,,0.00,WeatherDisplay:10.37,2013-04-24 00:53:00,
2013-04-23 20:58:00,51.8,49.5,30.10,ESE,121,0.0,0.0,92,0.00,CLR,,0.00,WeatherDisplay:10.37,2013-04-24 00:58:00,
2013-04-23 21:03:00,51.5,49.3,30.10,ESE,121,0.0,0.0,92,0.00,CLR,,0.00,WeatherDisplay:10.37,2013-04-24 01:03:00,
2013-04-23 21:08:00,51.2,49.0,30.10,ESE,121,0.0,0.0,92,0.00,CLR,,0.00,WeatherDisplay:10.37,2013-04-24 01:08:00,
2013-04-23 21:13:00,51.1,48.9,30.11,ESE,121,0.0,0.0,92,0.00,CLR,,0.00,WeatherDisplay:10.37,2013-04-24 01:13:00,
2013-04-23 21:18:00,51.0,49.0,30.11,ESE,121,0.0,0.0,93,0.00,CLR,,0.00,WeatherDisplay:10.37,2013-04-24 01:18:00,
2013-04-23 21:23:00,50.8,48.8,30.11,ESE,121,0.0,0.0,93,0.00,CLR,,0.00,WeatherDisplay:10.37,2013-04-24 01:23:00,
2013-04-23 21:28:00,50.6,48.7,30.11,ESE,121,0.0,0.0,93,0.00,CLR,,0.00,WeatherDisplay:10.37,2013-04-24 01:28:00,
2013-04-23 21:33:00,50.3,48.4,30.11,ESE,121,0.0,0.0,93,0.00,CLR,,0.00,WeatherDisplay:10.37,2013-04-24 01:33:00,
2013-04-23 21:38:00,50.3,48.4,30.11,ESE,121,0.0,0.0,93,0.00,CLR,,0.00,WeatherDisplay:10.37,2013-04-24 01:38:00,
2013-04-23 21:43:00,50.2,48.3,30.11,ESE,121,0.0,0.0,93,0.00,CLR,,0.00,WeatherDisplay:10.37,2013-04-24 01:43:00,
2013-04-23 21:48:00,50.1,48.2,30.11,ESE,121,0.0,0.0,93,0.00,CLR,,0.00,WeatherDisplay:10.37,2013-04-24 01:48:00,
2013-04-23 21:53:00,49.6,47.7,30.11,ESE,121,0.0,0.0,93,0.00,CLR,,0.00,WeatherDisplay:10.37,2013-04-24 01:53:00,
2013-04-23 21:58:00,49.3,47.4,30.11,ESE,121,0.0,0.0,93,0.00,CLR,,0.00,WeatherDisplay:10.37,2013-04-24 01:58:00,
2013-04-23 22:03:00,49.1,47.4,30.11,ESE,121,0.0,0.0,94,0.00,CLR,,0.00,WeatherDisplay:10.37,2013-04-24 02:03:00,
2013-04-23 22:08:00,49.0,47.3,30.11,ESE,121,0.0,0.0,94,0.00,CLR,,0.00,WeatherDisplay:10.37,2013-04-24 02:08:00,
2013-04-23 22:14:00,49.0,47.3,30.11,ESE,121,0.0,0.0,94,0.00,CLR,,0.00,WeatherDisplay:10.37,2013-04-24 02:14:00,
2013-04-23 22:19:00,49.0,47.3,30.10,ESE,121,0.0,0.0,94,0.00,CLR,,0.00,WeatherDisplay:10.37,2013-04-24 02:19:00,
2013-04-23 22:24:00,49.0,47.3,30.11,ESE,121,0.0,0.0,94,0.00,CLR,,0.00,WeatherDisplay:10.37,2013-04-24 02:24:00,
2013-04-23 22:29:00,48.8,47.2,30.11,ESE,121,0.0,0.0,94,0.00,CLR,,0.00,WeatherDisplay:10.37,2013-04-24 02:29:00,
2013-04-23 22:34:00,48.7,47.1,30.11,ESE,121,0.0,0.0,94,0.00,CLR,,0.00,WeatherDisplay:10.37,2013-04-24 02:34:00,
2013-04-23 22:40:00,48.7,47.1,30.10,ESE,121,3.5,3.5,94,0.00,CLR,,0.00,WeatherDisplay:10.37,2013-04-24 02:40:00,
2013-04-23 22:45:00,48.6,47.0,30.10,ESE,121,0.0,0.0,94,0.00,CLR,,0.00,WeatherDisplay:10.37,2013-04-24 02:45:00,
2013-04-23 22:50:00,48.4,46.8,30.10,ESE,121,0.0,0.0,94,0.00,CLR,,0.00,WeatherDisplay:10.37,2013-04-24 02:50:00,
2013-04-23 22:56:00,48.5,47.1,30.10,ESE,121,0.0,0.0,95,0.00,CLR,,0.00,WeatherDisplay:10.37,2013-04-24 02:56:00,
2013-04-23 23:01:00,48.4,47.0,30.10,ESE,121,0.0,0.0,95,0.00,CLR,,0.00,WeatherDisplay:10.37,2013-04-24 03:01:00,
2013-04-23 23:06:00,48.3,46.9,30.10,ESE,121,0.0,0.0,95,0.00,CLR,,0.00,WeatherDisplay:10.37,2013-04-24 03:06:00,
2013-04-23 23:11:00,48.3,46.9,30.10,ESE,121,0.0,0.0,95,0.00,CLR,,0.00,WeatherDisplay:10.37,2013-04-24 03:11:00,
2013-04-23 23:17:00,48.2,46.8,30.10,ESE,121,0.0,0.0,95,0.00,CLR,,0.00,WeatherDisplay:10.37,2013-04-24 03:17:00,
2013-04-23 23:22:00,48.0,46.6,30.09,ESE,121,0.0,0.0,95,0.00,CLR,,0.00,WeatherDisplay:10.37,2013-04-24 03:22:00,
2013-04-23 23:28:00,48.0,46.6,30.09,ESE,121,0.0,0.0,95,0.00,CLR,,0.00,WeatherDisplay:10.37,2013-04-24 03:28:00,
2013-04-23 23:33:00,48.1,46.7,30.09,ESE,121,0.0,0.0,95,0.00,CLR,,0.00,WeatherDisplay:10.37,2013-04-24 03:33:00,
2013-04-23 23:38:00,48.2,46.8,30.10,ESE,121,0.0,0.0,95,0.00,CLR,,0.00,WeatherDisplay:10.37,2013-04-24 03:38:00,
2013-04-23 23:43:00,48.0,46.6,30.09,ESE,121,0.0,0.0,95,0.00,CLR,,0.00,WeatherDisplay:10.37,2013-04-24 03:43:00,
2013-04-23 23:49:00,47.7,46.3,30.09,ESE,121,0.0,0.0,95,0.00,CLR,,0.00,WeatherDisplay:10.37,2013-04-24 03:49:00,
2013-04-23 23:55:00,48.2,46.8,30.08,ESE,119,4.6,4.6,95,0.00,CLR,,0.00,WeatherDisplay:10.37,2013-04-24 03:55:00,